Time,TemperatureF,DewpointF,PressureIn,WindDirection,WindDirectionDegrees,WindSpeedMPH,WindSpeedGustMPH,Humidity,HourlyPrecipIn,Conditions,Clouds,dailyrainin,SoftwareType,DateUTC
2013-02-08 00:02:00,33.0,31.0,29.84,NE,45,3.0,10.0,94,0.05,,,0.06,,2013-02-08 05:02:00,
2013-02-08 00:12:00,33.0,31.0,29.84,NE,45,3.0,10.0,94,0.05,,,0.06,,2013-02-08 05:12:00,
2013-02-08 00:22:00,33.0,31.0,29.83,NE,53,4.0,8.0,94,0.04,,,0.06,,2013-02-08 05:22:00,
2013-02-08 00:32:00,33.0,31.0,29.83,NE,54,3.0,5.0,94,0.03,,,0.07,,2013-02-08 05:32:00,
2013-02-08 00:42:00,33.0,31.0,29.83,NE,54,3.0,5.0,94,0.03,,,0.07,,2013-02-08 05:42:00,
2013-02-08 00:52:00,33.0,31.0,29.82,NE,34,3.0,8.0,94,0.04,,,0.08,,2013-02-08 05:52:00,
2013-02-08 01:02:00,33.0,32.0,29.82,NE,38,2.0,5.0,95,0.03,,,0.09,,2013-02-08 06:02:00,
2013-02-08 01:11:00,33.0,32.0,29.82,NE,38,2.0,5.0,95,0.03,,,0.09,,2013-02-08 06:11:00,
2013-02-08 01:22:00,33.0,32.0,29.82,NE,39,0.0,4.0,95,0.04,,,0.10,,2013-02-08 06:22:00,
2013-02-08 01:32:00,33.0,32.0,29.82,NNE,19,0.0,0.0,95,0.03,,,0.10,,2013-02-08 06:32:00,
2013-02-08 01:42:00,33.0,32.0,29.82,NNE,19,0.0,0.0,95,0.03,,,0.10,,2013-02-08 06:42:00,
2013-02-08 01:52:00,33.0,32.0,29.82,NNE,19,0.0,0.0,95,0.03,,,0.11,,2013-02-08 06:52:00,
2013-02-08 02:01:00,33.0,32.0,29.82,NNE,19,0.0,0.0,95,0.02,,,0.11,,2013-02-08 07:01:00,
2013-02-08 02:11:00,33.0,32.0,29.82,NNE,19,0.0,0.0,95,0.02,,,0.11,,2013-02-08 07:11:00,
2013-02-08 02:22:00,33.0,32.0,29.82,NNE,19,0.0,0.0,95,0.01,,,0.11,,2013-02-08 07:22:00,
2013-02-08 02:32:00,33.0,32.0,29.82,NNE,19,0.0,0.0,95,0.01,,,0.11,,2013-02-08 07:32:00,
2013-02-08 02:42:00,34.0,33.0,29.82,NNE,19,0.0,0.0,95,0.00,,,0.11,,2013-02-08 07:42:00,
2013-02-08 02:52:00,34.0,33.0,29.82,NNE,19,0.0,0.0,95,0.00,,,0.11,,2013-02-08 07:52:00,
2013-02-08 03:01:00,34.0,33.0,29.82,NNE,19,0.0,0.0,95,0.00,,,0.11,,2013-02-08 08:01:00,
2013-02-08 03:11:00,34.0,33.0,29.82,NNE,19,0.0,0.0,95,0.00,,,0.11,,2013-02-08 08:11:00,
2013-02-08 03:22:00,34.0,33.0,29.82,NNE,19,0.0,0.0,95,0.00,,,0.11,,2013-02-08 08:22:00,
2013-02-08 03:32:00,34.0,33.0,29.82,NNE,19,0.0,0.0,95,0.00,,,0.11,,2013-02-08 08:32:00,
2013-02-08 03:42:00,34.0,33.0,29.82,NNE,19,0.0,0.0,95,0.00,,,0.11,,2013-02-08 08:42:00,
2013-02-08 03:52:00,34.0,33.0,29.83,NNE,19,0.0,0.0,95,0.00,,,0.11,,2013-02-08 08:52:00,
2013-02-08 04:03:00,33.0,32.0,29.83,NNE,19,0.0,0.0,95,0.00,,,0.11,,2013-02-08 09:03:00,
2013-02-08 04:11:00,33.0,32.0,29.83,NNE,19,0.0,0.0,95,0.00,,,0.11,,2013-02-08 09:11:00,
2013-02-08 04:21:00,33.0,32.0,29.83,NNE,19,0.0,0.0,95,0.00,,,0.11,,2013-02-08 09:21:00,
2013-02-08 04:32:00,33.0,32.0,29.83,NNE,19,0.0,0.0,95,0.00,,,0.11,,2013-02-08 09:32:00,
2013-02-08 04:42:00,33.0,32.0,29.83,NNE,19,0.0,0.0,95,0.00,,,0.11,,2013-02-08 09:42:00,
2013-02-08 04:52:00,33.0,32.0,29.84,NNE,19,0.0,0.0,96,0.00,,,0.11,,2013-02-08 09:52:00,
2013-02-08 05:01:00,33.0,32.0,29.85,NNE,19,0.0,0.0,96,0.00,,,0.11,,2013-02-08 10:01:00,
2013-02-08 05:12:00,33.0,32.0,29.85,NNE,19,0.0,0.0,96,0.00,,,0.11,,2013-02-08 10:12:00,
2013-02-08 05:22:00,33.0,32.0,29.85,NNE,19,0.0,0.0,96,0.00,,,0.11,,2013-02-08 10:22:00,
2013-02-08 05:32:00,33.0,32.0,29.86,NNE,19,0.0,0.0,96,0.00,,,0.11,,2013-02-08 10:32:00,
2013-02-08 05:42:00,33.0,32.0,29.86,NNE,19,0.0,0.0,96,0.00,,,0.11,,2013-02-08 10:42:00,
2013-02-08 05:52:00,32.0,31.0,29.88,NNE,19,0.0,0.0,96,0.00,,,0.11,,2013-02-08 10:52:00,
2013-02-08 06:01:00,32.0,31.0,29.88,NNE,19,0.0,0.0,96,0.00,,,0.11,,2013-02-08 11:01:00,
2013-02-08 06:11:00,32.0,31.0,29.88,NNE,19,0.0,0.0,96,0.00,,,0.11,,2013-02-08 11:11:00,
2013-02-08 06:22:00,31.0,30.0,29.90,NNE,19,0.0,0.0,95,0.00,,,0.11,,2013-02-08 11:22:00,
2013-02-08 06:32:00,31.0,30.0,29.91,NNE,19,0.0,0.0,95,0.00,,,0.11,,2013-02-08 11:32:00,
2013-02-08 06:42:00,31.0,30.0,29.91,NNE,19,0.0,0.0,95,0.00,,,0.11,,2013-02-08 11:42:00,
2013-02-08 06:52:00,31.0,29.0,29.91,NNE,19,0.0,0.0,94,0.00,,,0.11,,2013-02-08 11:52:00,
2013-02-08 07:02:00,31.0,29.0,29.93,NNE,19,0.0,0.0,94,0.00,,,0.11,,2013-02-08 12:02:00,
2013-02-08 07:11:00,31.0,29.0,29.93,NNE,19,0.0,0.0,94,0.00,,,0.11,,2013-02-08 12:11:00,
2013-02-08 07:22:00,30.0,28.0,29.93,NNE,19,0.0,0.0,93,0.00,,,0.11,,2013-02-08 12:22:00,
2013-02-08 07:33:00,30.0,28.0,29.94,NNE,19,0.0,0.0,93,0.00,,,0.11,,2013-02-08 12:33:00,
2013-02-08 07:42:00,30.0,28.0,29.94,NNE,19,0.0,0.0,93,0.00,,,0.11,,2013-02-08 12:42:00,
2013-02-08 07:52:00,30.0,28.0,29.96,NNE,19,0.0,0.0,93,0.00,,,0.11,,2013-02-08 12:52:00,
2013-02-08 08:02:00,30.0,28.0,29.96,NNE,19,0.0,0.0,94,0.00,,,0.11,,2013-02-08 13:02:00,
2013-02-08 08:12:00,30.0,28.0,29.96,NNE,19,0.0,0.0,94,0.00,,,0.11,,2013-02-08 13:12:00,
2013-02-08 08:22:00,30.0,28.0,29.97,NNE,19,0.0,0.0,94,0.00,,,0.11,,2013-02-08 13:22:00,
2013-02-08 08:32:00,30.0,28.0,29.98,NNE,19,0.0,0.0,94,0.00,,,0.11,,2013-02-08 13:32:00,
2013-02-08 08:42:00,30.0,28.0,29.98,NNE,19,0.0,0.0,94,0.00,,,0.11,,2013-02-08 13:42:00,
2013-02-08 08:52:00,30.0,28.0,29.98,NNE,19,0.0,0.0,94,0.00,,,0.11,,2013-02-08 13:52:00,
2013-02-08 09:02:00,30.0,28.0,30.00,NNE,19,0.0,0.0,93,0.00,,,0.11,,2013-02-08 14:02:00,
2013-02-08 09:11:00,30.0,28.0,30.00,NNE,19,0.0,0.0,93,0.00,,,0.11,,2013-02-08 14:11:00,
2013-02-08 09:22:00,30.0,28.0,30.02,NNE,19,0.0,0.0,92,0.00,,,0.11,,2013-02-08 14:22:00,
2013-02-08 09:32:00,31.0,29.0,30.03,NNE,19,0.0,0.0,91,0.00,,,0.11,,2013-02-08 14:32:00,
2013-02-08 09:42:00,31.0,29.0,30.03,NNE,19,0.0,0.0,91,0.00,,,0.11,,2013-02-08 14:42:00,
2013-02-08 09:52:00,31.0,29.0,30.04,NNE,19,0.0,0.0,91,0.00,,,0.11,,2013-02-08 14:52:00,
2013-02-08 10:02:00,31.0,29.0,30.04,NNE,19,0.0,0.0,91,0.00,,,0.11,,2013-02-08 15:02:00,
2013-02-08 10:12:00,31.0,29.0,30.04,NNE,19,0.0,0.0,91,0.00,,,0.11,,2013-02-08 15:12:00,
2013-02-08 10:22:00,31.0,28.0,30.05,NNE,19,0.0,0.0,90,0.00,,,0.11,,2013-02-08 15:22:00,
2013-02-08 10:32:00,31.0,28.0,30.06,NNE,19,0.0,0.0,90,0.00,,,0.11,,2013-02-08 15:32:00,
2013-02-08 10:42:00,31.0,28.0,30.06,NNE,19,0.0,0.0,90,0.00,,,0.11,,2013-02-08 15:42:00,
2013-02-08 10:52:00,31.0,28.0,30.07,NNE,19,0.0,0.0,89,0.00,,,0.11,,2013-02-08 15:52:00,
2013-02-08 11:11:00,30.0,27.0,30.08,NNE,19,0.0,0.0,89,0.00,,,0.11,,2013-02-08 16:11:00,
2013-02-08 11:22:00,31.0,28.0,30.09,NNE,19,0.0,0.0,89,0.00,,,0.11,,2013-02-08 16:22:00,
2013-02-08 11:32:00,31.0,28.0,30.10,NNE,19,0.0,0.0,87,0.00,,,0.11,,2013-02-08 16:32:00,
2013-02-08 11:42:00,31.0,28.0,30.10,NNE,19,0.0,0.0,87,0.00,,,0.11,,2013-02-08 16:42:00,
2013-02-08 11:52:00,31.0,28.0,30.11,NNE,19,0.0,0.0,88,0.00,,,0.11,,2013-02-08 16:52:00,
2013-02-08 12:04:00,31.0,28.0,30.12,NNE,19,0.0,0.0,89,0.00,,,0.11,,2013-02-08 17:04:00,
2013-02-08 12:12:00,31.0,28.0,30.12,NNE,19,0.0,0.0,89,0.00,,,0.11,,2013-02-08 17:12:00,
2013-02-08 12:23:00,31.0,27.0,30.14,NNE,19,0.0,0.0,86,0.00,,,0.11,,2013-02-08 17:23:00,
2013-02-08 12:33:00,31.0,27.0,30.14,NNE,18,0.0,0.0,84,0.00,,,0.11,,2013-02-08 17:33:00,
2013-02-08 12:42:00,31.0,27.0,30.14,NNE,18,0.0,0.0,84,0.00,,,0.11,,2013-02-08 17:42:00,
2013-02-08 12:52:00,31.0,27.0,30.14,NNE,19,0.0,0.0,85,0.00,,,0.11,,2013-02-08 17:52:00,
2013-02-08 13:02:00,31.0,27.0,30.14,NNE,18,0.0,0.0,86,0.00,,,0.11,,2013-02-08 18:02:00,
2013-02-08 13:12:00,31.0,27.0,30.14,NNE,18,0.0,0.0,86,0.00,,,0.11,,2013-02-08 18:12:00,
2013-02-08 13:25:00,31.0,27.0,30.14,NW,305,0.0,0.0,84,0.00,,,0.11,,2013-02-08 18:25:00,
2013-02-08 13:36:00,32.0,28.0,30.15,WNW,299,0.0,0.0,85,0.00,,,0.11,,2013-02-08 18:36:00,
2013-02-08 13:44:00,32.0,28.0,30.15,WNW,299,0.0,0.0,85,0.00,,,0.11,,2013-02-08 18:44:00,
2013-02-08 13:52:00,32.0,28.0,30.15,WNW,299,0.0,0.0,85,0.00,,,0.11,,2013-02-08 18:52:00,
2013-02-08 14:02:00,31.0,26.0,30.16,North,5,0.0,0.0,82,0.00,,,0.11,,2013-02-08 19:02:00,
2013-02-08 14:12:00,31.0,26.0,30.16,North,5,0.0,0.0,82,0.00,,,0.11,,2013-02-08 19:12:00,
2013-02-08 14:22:00,32.0,27.0,30.16,NNW,332,0.0,0.0,82,0.00,,,0.11,,2013-02-08 19:22:00,
2013-02-08 14:32:00,32.0,26.0,30.17,West,270,0.0,0.0,79,0.00,,,0.11,,2013-02-08 19:32:00,
2013-02-08 14:42:00,32.0,26.0,30.17,West,270,0.0,0.0,79,0.00,,,0.11,,2013-02-08 19:42:00,
2013-02-08 14:52:00,32.0,27.0,30.17,West,281,0.0,0.0,80,0.00,,,0.11,,2013-02-08 19:52:00,
2013-02-08 15:02:00,32.0,26.0,30.18,North,360,0.0,0.0,78,0.00,,,0.11,,2013-02-08 20:02:00,
2013-02-08 15:12:00,32.0,26.0,30.18,North,360,0.0,0.0,78,0.00,,,0.11,,2013-02-08 20:12:00,
2013-02-08 15:22:00,32.0,26.0,30.18,WNW,290,0.0,0.0,79,0.00,,,0.11,,2013-02-08 20:22:00,
2013-02-08 15:32:00,32.0,26.0,30.19,WNW,296,0.0,0.0,77,0.00,,,0.11,,2013-02-08 20:32:00,
2013-02-08 15:42:00,32.0,26.0,30.19,WNW,296,0.0,0.0,77,0.00,,,0.11,,2013-02-08 20:42:00,
2013-02-08 15:52:00,32.0,26.0,30.20,NW,321,0.0,0.0,78,0.00,,,0.11,,2013-02-08 20:52:00,
2013-02-08 16:02:00,32.0,25.0,30.21,West,274,5.0,11.0,75,0.00,,,0.11,,2013-02-08 21:02:00,
2013-02-08 16:12:00,32.0,25.0,30.21,West,274,5.0,11.0,75,0.00,,,0.11,,2013-02-08 21:12:00,
2013-02-08 16:22:00,32.0,25.0,30.22,West,259,2.0,11.0,76,0.00,,,0.11,,2013-02-08 21:22:00,
2013-02-08 16:33:00,33.0,26.0,30.22,WNW,303,3.0,9.0,75,0.00,,,0.11,,2013-02-08 21:33:00,
2013-02-08 16:42:00,33.0,26.0,30.22,WNW,303,3.0,9.0,75,0.00,,,0.11,,2013-02-08 21:42:00,
2013-02-08 16:52:00,33.0,26.0,30.23,WNW,294,2.0,9.0,74,0.00,,,0.11,,2013-02-08 21:52:00,
2013-02-08 17:02:00,32.0,24.0,30.23,NW,305,4.0,13.0,71,0.00,,,0.11,,2013-02-08 22:02:00,
2013-02-08 17:12:00,32.0,24.0,30.23,NW,305,4.0,13.0,71,0.00,,,0.11,,2013-02-08 22:12:00,
2013-02-08 17:22:00,32.0,24.0,30.24,NNW,344,2.0,11.0,73,0.00,,,0.11,,2013-02-08 22:22:00,
2013-02-08 17:32:00,31.0,23.0,30.25,WNW,296,5.0,10.0,73,0.00,,,0.11,,2013-02-08 22:32:00,
2013-02-08 17:42:00,31.0,23.0,30.25,WNW,296,5.0,10.0,73,0.00,,,0.11,,2013-02-08 22:42:00,
2013-02-08 17:52:00,31.0,23.0,30.26,NNW,329,2.0,7.0,73,0.00,,,0.11,,2013-02-08 22:52:00,
2013-02-08 18:02:00,31.0,24.0,30.26,West,269,4.0,9.0,74,0.00,,,0.11,,2013-02-08 23:02:00,
2013-02-08 18:11:00,31.0,24.0,30.26,West,269,4.0,9.0,74,0.00,,,0.11,,2013-02-08 23:11:00,
2013-02-08 18:22:00,31.0,24.0,30.26,West,269,4.0,9.0,74,0.00,,,0.11,,2013-02-08 23:22:00,
2013-02-08 18:32:00,30.0,22.0,30.28,NW,310,1.0,7.0,72,0.00,,,0.11,,2013-02-08 23:32:00,
2013-02-08 18:42:00,30.0,22.0,30.28,NW,310,1.0,7.0,72,0.00,,,0.11,,2013-02-08 23:42:00,
2013-02-08 18:52:00,29.0,22.0,30.29,NNW,333,1.0,3.0,75,0.00,,,0.11,,2013-02-08 23:52:00,
2013-02-08 19:02:00,29.0,21.0,30.30,NW,315,3.0,10.0,73,0.00,,,0.11,,2013-02-09 00:02:00,
2013-02-08 19:12:00,29.0,21.0,30.30,NW,315,3.0,10.0,73,0.00,,,0.11,,2013-02-09 00:12:00,
2013-02-08 19:22:00,29.0,21.0,30.30,NW,315,3.0,10.0,73,0.00,,,0.11,,2013-02-09 00:22:00,
2013-02-08 19:32:00,29.0,21.0,30.32,North,349,0.0,4.0,72,0.00,,,0.11,,2013-02-09 00:32:00,
2013-02-08 19:42:00,29.0,21.0,30.32,North,349,0.0,4.0,72,0.00,,,0.11,,2013-02-09 00:42:00,
2013-02-08 19:52:00,29.0,21.0,30.32,North,349,0.0,4.0,72,0.00,,,0.11,,2013-02-09 00:52:00,
2013-02-08 20:02:00,28.0,20.0,30.32,NNW,348,0.0,2.0,73,0.00,,,0.11,,2013-02-09 01:02:00,
2013-02-08 20:12:00,28.0,20.0,30.32,NNW,348,0.0,2.0,73,0.00,,,0.11,,2013-02-09 01:12:00,
2013-02-08 20:22:00,28.0,21.0,30.33,NNW,348,0.0,0.0,75,0.00,,,0.11,,2013-02-09 01:22:00,
2013-02-08 20:32:00,26.0,20.0,30.34,NNW,348,0.0,0.0,78,0.00,,,0.11,,2013-02-09 01:32:00,
2013-02-08 20:42:00,26.0,20.0,30.34,NNW,348,0.0,0.0,78,0.00,,,0.11,,2013-02-09 01:42:00,
2013-02-08 20:52:00,25.0,20.0,30.35,NNW,348,0.0,1.0,80,0.00,,,0.11,,2013-02-09 01:52:00,
2013-02-08 21:01:00,24.0,20.0,30.35,NNW,348,0.0,1.0,83,0.00,,,0.11,,2013-02-09 02:01:00,
2013-02-08 21:11:00,24.0,20.0,30.35,NNW,348,0.0,1.0,83,0.00,,,0.11,,2013-02-09 02:11:00,
2013-02-08 21:22:00,23.0,19.0,30.36,NNW,348,0.0,1.0,83,0.00,,,0.11,,2013-02-09 02:22:00,
2013-02-08 21:32:00,23.0,19.0,30.36,NNW,348,0.0,0.0,84,0.00,,,0.11,,2013-02-09 02:32:00,
2013-02-08 21:42:00,23.0,19.0,30.36,NNW,348,0.0,0.0,84,0.00,,,0.11,,2013-02-09 02:42:00,
2013-02-08 21:52:00,23.0,19.0,30.36,NNW,348,0.0,0.0,84,0.00,,,0.11,,2013-02-09 02:52:00,
2013-02-08 22:02:00,23.0,19.0,30.36,NNW,348,0.0,0.0,83,0.00,,,0.11,,2013-02-09 03:02:00,
2013-02-08 22:11:00,23.0,19.0,30.36,NNW,348,0.0,0.0,83,0.00,,,0.11,,2013-02-09 03:11:00,
2013-02-08 22:22:00,23.0,19.0,30.37,NNW,348,0.0,0.0,84,0.00,,,0.11,,2013-02-09 03:22:00,
2013-02-08 22:32:00,23.0,19.0,30.37,NNW,348,0.0,0.0,84,0.00,,,0.11,,2013-02-09 03:32:00,
2013-02-08 22:42:00,23.0,19.0,30.37,NNW,348,0.0,0.0,84,0.00,,,0.11,,2013-02-09 03:42:00,
2013-02-08 22:52:00,20.0,17.0,30.38,NNW,348,0.0,0.0,88,0.00,,,0.11,,2013-02-09 03:52:00,
2013-02-08 23:03:00,20.0,17.0,30.38,NNW,348,0.0,0.0,88,0.00,,,0.11,,2013-02-09 04:03:00,
2013-02-08 23:12:00,19.0,16.0,30.39,NNW,348,0.0,1.0,88,0.00,,,0.11,,2013-02-09 04:12:00,
2013-02-08 23:23:00,19.0,16.0,30.39,NNW,348,0.0,1.0,88,0.00,,,0.11,,2013-02-09 04:23:00,
2013-02-08 23:32:00,19.0,16.0,30.39,WNW,284,0.0,2.0,89,0.00,,,0.09,,2013-02-09 04:32:00,
2013-02-08 23:42:00,19.0,16.0,30.39,WNW,284,0.0,2.0,89,0.00,,,0.09,,2013-02-09 04:42:00,
2013-02-08 23:52:00,19.0,16.0,30.40,WNW,284,0.0,1.0,89,0.00,,,0.09,,2013-02-09 04:52:00,